User: anonymous   Login
Location: Unspecified
(0.0000°N, 0.0000°E)
Time: 22:15:23
(UTC+00:00)
Language:

ISS - Orbit

View from above orbital plane
View from above orbital plane
View from above satellite
View from above satellite

Ground track
Ground track

The orbit data is extracted from the following two-line orbital elements,

1 25544U 98067A   19286.70556881  .00001123  00000-0  27533-4 0  9997
2 25544  51.6422 133.5689 0007330 144.7885 331.4750 15.50197915193646
Epoch (UTC): 13 October 2019 16:56:01
Eccentricity: 0.0007330
inclination: 51.6422°
perigee height: 411 km
apogee height: 421 km
right ascension of ascending node: 133.5689°
argument of perigee: 144.7885°
revolutions per day: 15.50197915
mean anomaly at epoch: 331.4750°
orbit number at epoch: 19364

The dashed part of the orbit path shows where the satellite is in the earth's shadow,  

DLR